CSS (TIANHE-1), 48274

Orbit data source: Space-Track

The Chinese Space Station (CSS), known as Tiangong or "Heavenly Palace," is China's independently developed space station that represents a significant step in China’s space exploration capabilities. Launched in phases starting with the Tianhe module in 2021, the station operates in low Earth orbit (LEO). It aims to support a variety of scientific experiments in fields such as space medicine, astronomy, and technology development.

Loading next visibility...
Identifier
48274, 2021-035A
Orbit
LEO
Country
Flag of CNCN / PRC
Related business
Manufacturer
CAST
Mission
Operational Civil Spaceship
Bus & Motor
TIANHE, Unknown motor
Mass
22,500 kg wet, ~20,838 kg dry
Launch date (UTC)
2021-04-29 (5 years ago)
Launch vehicle
CHANG ZHENG 5B
Launch site
Wenchang Satellite Launch Center (WSC)
Object type
Payload
Rocket body
Debris
Shape & HBR
Irr, 27.5 m
Radar Cross Section
2905.500 m², Large (>1 m²)

Expand to show TLE details & history
Last TLE update: 4 hours ago

TLE from 4 hours ago
0 CSS (TIANHE-1)
1 48274U 21035A   25312.83194167  .00042043  00000-0  49295-3 0  9993
2 48274  41.4657 222.5840 0005261 347.1900  12.8804 15.60711560258735
Epoch: 2025-11-08T19:57Z
TLE epoch observation values (Epoch: 2025-11-08T19:57:59.760Z)
Latitude
-0.00004°
Longitude
-125.17094°
Altitude
381.731 km
Speed
7.685 km/s
True Right ascension
14h 50m 20s
True Declination
0° 00' 00"
Sunlit
Object was in daylight at epoch
Visualization orbit readout
Latitude
Unknown
Longitude
Unknown
Altitude
Unknown
Speed
Unknown
Apparent Right ascension
Unknown
Apparent Declination
Unknown
Sunlit
N/A
Visualization observer readout
Local Sidereal Time
20:37:22
Azimuth
Unknown
Elevation
Unknown
Doppler factor
Unknown
Orbital elements
Apogee altitude
391.394 km
Perigee altitude
384.274 km
Semi-major axis
6,765.971 km
Eccentricity
0.00053
Inclination
41.4657°
RAAN
222.584°
Arg. of periapsis
347.19°
True anomaly
12.89385°
Mean anomaly
12.8804°
Eccentric anomaly
12.88712°
Mean motion
3.89985 °/min
Orbital period
92.31 mins
BSTAR
0.00049295
Loading maneuver chart data...
Computing Atmospheric mass density...
Loading historical data...
Loading historical data...
Loading historical data...
Loading historical data...
Loading historical data...
Loading historical data...
Loading historical data...
Other satellites on launch #35 in the year 2021 (2021-04-29 UTC)

Documentation

Showing up to 5 results
|